User: anonymous   Login
Location: Unspecified
(0.0000°N, 0.0000°E)
Time: 18:06:02
(UTC+02:00)
Language:

Gurwin Techsat 1B - Orbit

View from above orbital plane
View from above orbital plane
View from above satellite
View from above satellite

Ground track
Ground track

The orbit data is extracted from the following two-line orbital elements,

1 25397U 98043D   17179.79160019 -.00000009 +00000-0 +15143-4 0  9996
2 25397 098.6103 121.8841 0001224 022.9442 337.1791 14.23624058985448
Epoch (UTC): 28 June 2017 18:59:54
Eccentricity: 0.0001224
inclination: 98.6103°
perigee height: 812 km
apogee height: 814 km
right ascension of ascending node: 121.8841°
argument of perigee: 22.9442°
revolutions per day: 14.23624058
mean anomaly at epoch: 337.1791°
orbit number at epoch: 98544

The dashed part of the orbit path shows where the satellite is in the earth's shadow,  

DLR